WA5LEE Weather Reports


time (UTC)temp
C
wind
direction
speed
KPH
gust
KPH
rain 1hr
cm
rain 24hr
cm
rain mn
cm
humidity
%
barometer
mb
20260505231003 27 292 0.0 6.4 0.00 0.00 0.00 75 1006.6
20260505230014 28 235 0.0 4.8 0.00 0.00 0.00 75 1006.8
20260505225509 28 218 0.0 4.8 0.00 0.00 0.00 74 1006.7
20260505225004 28 149 1.6 3.2 0.00 0.00 0.00 74 1006.5
20260505224007 28 134 1.6 3.2 0.00 0.00 0.00 73 1006.5
20260505223505 28 112 0.0 8.0 0.00 0.00 0.00 75 1006.5
20260505223010 28 194 1.6 8.0 0.00 0.00 0.00 74 1006.6
20260505222506 28 227 0.0 3.2 0.00 0.00 0.00 75 1006.6
20260505221512 28 190 0.0 8.0 0.00 0.00 0.00 76 1006.6
20260505221003 28 150 1.6 8.0 0.00 0.00 0.00 75 1006.5
20260505220512 28 77 0.0 3.2 0.00 0.00 0.00 76 1006.5
20260505220013 28 215 0.0 16.1 0.00 0.00 0.00 75 1006.7
20260505215007 28 55 0.0 6.4 0.00 0.00 0.00 75 1006.9
20260505214524 28 202 1.6 12.9 0.00 0.00 0.00 75 1007.0
20260505214003 28 131 1.6 12.9 0.00 0.00 0.00 75 1007.1
20260505213018 28 168 0.0 4.8 0.00 0.00 0.00 75 1007.3
20260505212513 28 217 1.6 4.8 0.00 0.00 0.00 74 1007.3
20260505212010 28 156 1.6 4.8 0.00 0.00 0.00 75 1007.3
20260505210504 28 152 0.0 3.2 0.00 0.00 0.00 73 1007.4
20260505210015 29 214 0.0 4.8 0.00 0.00 0.00 73 1007.5
20260505205508 29 182 0.0 4.8 0.00 0.00 0.00 73 1007.5
20260505205010 29 118 0.0 4.8 0.00 0.00 0.00 72 1007.5
20260505204511 29 127 1.6 6.4 0.00 0.00 0.00 73 1007.5
20260505204009 29 360 0.0 6.4 0.00 0.00 0.00 74 1007.8
20260505203507 29 113 1.6 4.8 0.00 0.00 0.00 75 1007.8
20260505203007 28 199 0.0 4.8 0.00 0.00 0.00 73 1007.8
20260505201525 28 223 1.6 9.7 0.00 0.00 0.00 75 1008.0
20260505201003 28 148 1.6 17.7 0.00 0.00 0.00 74 1008.1
20260505200508 28 142 1.6 17.7 0.00 0.00 0.00 74 1008.2
20260505195504 28 236 1.6 14.5 0.00 0.00 0.00 76 1008.5
20260505195005 27 124 0.0 14.5 0.00 0.00 0.00 77 1008.6
20260505194532 27 213 0.0 6.4 0.00 0.00 0.00 78 1008.6
20260505194009 27 169 1.6 6.4 0.00 0.00 0.00 77 1008.7
20260505193502 27 187 0.0 3.2 0.00 0.00 0.00 77 1008.8
20260505193032 27 203 0.0 3.2 0.00 0.00 0.00 77 1008.6
20260505192512 28 312 0.0 8.0 0.00 0.00 0.00 77 1008.6
20260505192003 28 159 0.0 8.0 0.00 0.00 0.00 75 1008.7
20260505191518 27 223 0.0 3.2 0.00 0.00 0.00 76 1008.7
20260505191013 27 125 0.0 11.3 0.00 0.00 0.00 76 1008.7
20260505190508 27 246 3.2 11.3 0.00 0.00 0.00 76 1008.8
20260505190013 27 164 1.6 6.4 0.00 0.00 0.00 78 1008.8
20260505185509 27 161 1.6 6.4 0.00 0.00 0.00 78 1008.9
20260505185008 27 178 0.0 6.4 0.00 0.00 0.00 78 1008.9
20260505184527 27 201 1.6 6.4 0.00 0.00 0.00 77 1009.0
20260505184007 27 203 1.6 12.9 0.00 0.00 0.00 78 1009.0
20260505183506 27 292 1.6 12.9 0.00 0.00 0.00 79 1009.0
20260505183028 26 183 1.6 12.9 0.00 0.00 0.00 79 1009.0
20260505182009 26 208 0.0 6.4 0.00 0.00 0.00 80 1009.1
20260505181522 26 17 0.0 3.2 0.00 0.00 0.00 79 1009.2
20260505181012 26 134 0.0 3.2 0.00 0.00 0.00 80 1009.1
20260505180507 26 186 0.0 3.2 0.00 0.00 0.00 80 1009.1
20260505180032 26 306 0.0 6.4 0.00 0.00 0.00 80 1009.1
20260505175508 26 167 0.0 6.4 0.00 0.00 0.00 81 1009.2
20260505175005 26 220 1.6 3.2 0.00 0.00 0.00 81 1009.2
20260505174531 26 164 0.0 6.4 0.00 0.00 0.00 81 1009.3
20260505174010 26 164 0.0 6.4 0.00 0.00 0.00 81 1009.4
20260505173510 26 155 1.6 6.4 0.00 0.00 0.00 82 1009.5
20260505173016 26 175 0.0 6.4 0.00 0.00 0.00 83 1009.5
20260505172506 25 148 0.0 4.8 0.00 0.00 0.00 83 1009.5
20260505172008 25 192 0.0 8.0 0.00 0.00 0.00 84 1009.5
20260505171514 25 190 0.0 8.0 0.00 0.00 0.00 83 1009.6
20260505170508 25 157 0.0 3.2 0.00 0.00 0.00 82 1009.7
20260505170028 26 192 0.0 4.8 0.00 0.00 0.00 82 1009.6
20260505165504 26 121 0.0 4.8 0.00 0.00 0.00 82 1009.7
20260505165007 26 246 0.0 3.2 0.00 0.00 0.00 82 1009.7
20260505164524 26 181 0.0 4.8 0.00 0.00 0.00 82 1009.7
20260505164010 25 173 0.0 4.8 0.00 0.00 0.00 82 1009.8
20260505163506 25 37 0.0 6.4 0.00 0.00 0.00 82 1009.7
20260505163024 25 195 0.0 8.0 0.00 0.00 0.00 82 1009.7
20260505162509 25 215 1.6 8.0 0.00 0.00 0.00 83 1009.7
20260505162007 25 215 0.0 3.2 0.00 0.00 0.00 83 1009.6
20260505161522 25 247 0.0 4.8 0.00 0.00 0.00 83 1009.6
20260505161008 25 196 0.0 12.9 0.00 0.00 0.00 83 1009.6
20260505153031 25 126 1.6 3.2 0.00 0.00 0.00 83 1009.4
20260505152504 25 212 0.0 3.2 0.00 0.00 0.00 83 1009.4
20260505152010 25 238 0.0 8.0 0.00 0.00 0.00 83 1009.4
20260505151529 25 219 1.6 9.7 0.00 0.00 0.00 83 1009.3
20260505151006 24 196 0.0 9.7 0.00 0.00 0.00 83 1009.3
20260505150507 24 221 0.0 4.8 0.00 0.00 0.00 83 1009.3
20260505140511 23 173 0.0 8.0 0.00 0.00 0.00 85 1009.1
20260505125011 -17 0.0 0.0 0.00 0.00 0.00 1008.8
20260505124526 -17 0.0 0.0 0.00 0.00 0.00 1008.4
20260505124011 -17 0.0 0.0 0.00 0.00 0.00 1008.4
20260505123508 -17 0.0 0.0 0.00 0.00 0.00 1008.7
20260505123041 -17 0.0 0.0 0.00 0.00 0.00 1008.9
20260505122509 -17 0.0 0.0 0.00 0.00 0.00 1008.8
20260505122013 -17 0.0 0.0 0.00 0.00 0.00 1008.9
20260505121528 -17 0.0 0.0 0.00 0.00 0.00 1008.9
20260505121010 -17 0.0 0.0 0.00 0.00 0.00 1008.6
20260505120029 -17 0.0 0.0 0.00 0.00 0.00 1008.5
20260505115510 -17 0.0 0.0 0.00 0.00 0.00 1008.5
20260505115007 -17 0.0 0.0 0.00 0.00 0.00 1008.3
20260505114526 -17 0.0 0.0 0.00 0.00 0.00 1008.1
20260505114008 -17 0.0 0.0 0.00 0.00 0.00 1008.3
20260505113510 -17 0.0 0.0 0.00 0.00 0.00 1008.6
20260505113034 -17 0.0 0.0 0.00 0.00 0.00 1008.7
20260505112509 -17 0.0 0.0 0.00 0.00 0.00 1008.6
20260505112015 -17 0.0 0.0 0.00 0.00 0.00 1008.6
20260505111542 -17 0.0 0.0 0.00 0.00 0.00 1008.4
20260505111013 -17 0.0 0.0 0.00 0.00 0.00 1008.5
20260505110513 -17 0.0 0.0 0.00 0.00 0.00 1008.3
20260505102011 -17 0.0 0.0 0.00 0.00 0.00 1008.5
20260505100028 -17 0.0 0.0 0.00 0.00 0.00 1008.6
20260505092510 -17 0.0 0.0 0.00 0.00 0.00 1008.8
20260505091533 -17 0.0 0.0 0.00 0.00 0.00 1008.9
20260505091011 -17 0.0 0.0 0.00 0.00 0.00 1008.8
20260505090511 -17 0.0 0.0 0.00 0.00 0.00 1008.8
20260505090033 -17 219 0.0 3.2 0.00 0.00 0.00 1008.8
20260505085507 21 219 0.0 4.8 0.00 0.00 0.00 87 1008.8
20260505085007 21 190 0.0 4.8 0.00 0.00 0.00 87 1008.8
20260505084006 21 206 0.0 3.2 0.00 0.00 0.00 87 1008.8
20260505083508 21 199 0.0 3.2 0.00 0.00 0.00 86 1008.8
20260505083015 21 199 0.0 3.2 0.00 0.00 0.00 86 1009.0
20260505082508 21 192 0.0 3.2 0.00 0.00 0.00 86 1009.1
20260505082012 21 211 0.0 3.2 0.00 0.00 0.00 86 1009.1
20260505081509 21 221 0.0 3.2 0.00 0.00 0.00 86 1009.2
20260505081009 21 232 0.0 1.6 0.00 0.00 0.00 86 1009.1
20260505080510 21 232 0.0 1.6 0.00 0.00 0.00 86 1009.2
20260505080033 21 259 0.0 0.0 0.00 0.00 0.00 86 1009.3
20260505075503 21 209 0.0 0.0 0.00 0.00 0.00 86 1009.3
20260505075012 21 209 0.0 3.2 0.00 0.00 0.00 86 1009.3
20260505074522 21 209 0.0 3.2 0.00 0.00 0.00 85 1009.3
20260505074004 21 209 0.0 0.0 0.00 0.00 0.00 85 1009.4
20260505073022 21 209 0.0 0.0 0.00 0.00 0.00 85 1009.4
20260505072510 21 209 0.0 0.0 0.00 0.00 0.00 85 1009.4
20260505072004 21 209 0.0 1.6 0.00 0.00 0.00 85 1009.6
20260505071519 21 209 0.0 3.2 0.00 0.00 0.00 85 1009.6
20260505071011 21 209 0.0 3.2 0.00 0.00 0.00 85 1009.7
20260505070508 21 207 0.0 3.2 0.00 0.00 0.00 85 1009.7
20260505070017 21 171 0.0 3.2 0.00 0.00 0.00 84 1009.7
20260505065507 21 189 0.0 3.2 0.00 0.00 0.00 84 1009.8
20260505065007 21 228 0.0 1.6 0.00 0.00 0.00 84 1009.9
20260505064512 21 228 0.0 3.2 0.00 0.00 0.00 84 1009.9
20260505064009 21 175 0.0 3.2 0.00 0.00 0.00 84 1009.8
20260505063509 21 185 0.0 3.2 0.00 0.00 0.00 84 1009.9
20260505062012 21 138 0.0 3.2 0.00 0.00 0.00 84 1010.0
20260505061536 21 219 0.0 1.6 0.00 0.00 0.00 84 1010.1
20260505061007 21 194 0.0 3.2 0.00 0.00 0.00 84 1010.2
20260505060510 21 200 0.0 3.2 0.00 0.00 0.00 83 1010.2
20260505060027 21 198 0.0 3.2 0.00 0.00 0.00 83 1010.2
20260505055512 21 198 0.0 3.2 0.00 0.00 0.00 83 1010.2
20260505055007 21 197 0.0 3.2 0.00 0.00 0.00 83 1010.2
20260505054521 21 164 0.0 3.2 0.00 0.00 0.00 83 1010.2
20260505054017 21 102 0.0 3.2 0.00 0.00 0.00 82 1010.3
20260505053509 21 198 0.0 0.0 0.00 0.00 0.00 82 1010.4
20260505053018 21 198 0.0 3.2 0.00 0.00 0.00 82 1010.4
20260505052511 21 198 0.0 3.2 0.00 0.00 0.00 82 1010.6
20260505052010 21 212 0.0 1.6 0.00 0.00 0.00 82 1010.6
20260505051009 21 215 0.0 6.4 0.00 0.00 0.00 81 1010.7
20260505050513 21 181 1.6 6.4 0.00 0.00 0.00 81 1010.7
20260505041530 22 204 0.0 4.8 0.00 0.00 0.00 78 1010.7
20260505041009 22 68 0.0 3.2 0.00 0.00 0.00 79 1010.6
20260505040508 22 180 0.0 3.2 0.00 0.00 0.00 78 1010.4
20260505040024 22 202 0.0 3.2 0.00 0.00 0.00 78 1010.8
20260505035507 22 109 0.0 3.2 0.00 0.00 0.00 78 1010.7
20260505035003 22 111 1.6 3.2 0.00 0.00 0.00 78 1010.7
20260505033515 22 224 0.0 3.2 0.00 0.00 0.00 77 1010.9
20260505033019 22 135 0.0 3.2 0.00 0.00 0.00 77 1011.0
20260505032507 22 146 0.0 3.2 0.00 0.00 0.00 77 1011.0
20260505032014 22 213 0.0 3.2 0.00 0.00 0.00 77 1011.0
20260505031515 22 196 0.0 3.2 0.00 0.00 0.00 77 1011.0
20260505031008 22 256 0.0 3.2 0.00 0.00 0.00 77 1010.9
20260505030509 22 214 0.0 4.8 0.00 0.00 0.00 76 1011.0
20260505030028 22 105 0.0 4.8 0.00 0.00 0.00 76 1011.0
20260505025508 22 110 0.0 1.6 0.00 0.00 0.00 76 1010.8
20260505025010 22 208 0.0 3.2 0.00 0.00 0.00 76 1010.7
20260505024537 23 207 0.0 3.2 0.00 0.00 0.00 75 1010.6
20260505024009 23 150 0.0 3.2 0.00 0.00 0.00 75 1010.7
20260505023507 23 201 0.0 3.2 0.00 0.00 0.00 75 1010.8
20260505022512 23 169 0.0 3.2 0.00 0.00 0.00 75 1010.8
20260505022006 23 200 0.0 3.2 0.00 0.00 0.00 74 1010.7
20260505021523 23 195 0.0 3.2 0.00 0.00 0.00 74 1010.7
20260505021007 23 169 0.0 3.2 0.00 0.00 0.00 75 1010.7
20260505020508 23 163 0.0 3.2 0.00 0.00 0.00 74 1010.7
20260505020020 23 174 0.0 3.2 0.00 0.00 0.00 74 1010.6
20260505015511 23 172 0.0 4.8 0.00 0.00 0.00 73 1010.6
20260505015012 23 172 1.6 4.8 0.00 0.00 0.00 73 1010.5
20260505014519 23 186 0.0 3.2 0.00 0.00 0.00 74 1010.4
20260505013512 23 208 0.0 3.2 0.00 0.00 0.00 74 1010.3
20260505013029 23 115 0.0 3.2 0.00 0.00 0.00 74 1010.3
20260505012505 23 155 0.0 3.2 0.00 0.00 0.00 75 1010.3
20260505012015 23 217 0.0 3.2 0.00 0.00 0.00 74 1010.1
20260505011531 23 184 0.0 3.2 0.00 0.00 0.00 74 1010.1
20260505011006 23 200 0.0 4.8 0.00 0.00 0.00 73 1010.3
20260505010506 23 167 0.0 4.8 0.00 0.00 0.00 72 1010.3
20260505010026 23 210 0.0 3.2 0.00 0.00 0.00 72 1010.3
20260505005509 23 327 0.0 1.6 0.00 0.00 0.00 72 1010.3
20260505005007 24 234 0.0 1.6 0.00 0.00 0.00 71 1010.3
20260505004526 24 215 0.0 3.2 0.00 0.00 0.00 70 1010.2
20260505004014 24 200 0.0 3.2 0.00 0.00 0.00 71 1010.1
20260505003511 24 195 0.0 4.8 0.00 0.00 0.00 70 1010.2
20260505003024 25 144 0.0 4.8 0.00 0.00 0.00 69 1010.1
20260505002513 25 126 0.0 8.0 0.00 0.00 0.00 68 1010.1
20260505002011 25 202 0.0 8.0 0.00 0.00 0.00 68 1010.1
20260505001520 25 200 1.6 8.0 0.00 0.00 0.00 68 1010.2
20260505001012 25 132 0.0 9.7 0.00 0.00 0.00 67 1010.2
20260505000509 25 229 1.6 9.7 0.00 0.00 0.00 67 1010.3
20260505000032 25 161 1.6 6.4 0.00 0.00 0.00 67 1010.3
20260504235510 25 270 0.0 4.8 0.00 0.00 0.00 68 1010.4
20260504235009 25 186 1.6 4.8 0.00 0.00 0.00 67 1010.3
20260504234524 25 229 0.0 4.8 0.00 0.00 0.00 66 1010.3
20260504234008 25 112 0.0 3.2 0.00 0.00 0.00 66 1010.2
20260504233506 25 104 1.6 6.4 0.00 0.00 0.00 66 1010.4
20260504233017 25 181 0.0 6.4 0.00 0.00 0.00 66 1010.3
20260504232507 25 202 1.6 8.0 0.00 0.00 0.00 65 1010.4
20260504231531 26 281 0.0 6.4 0.00 0.00 0.00 65 1010.6